Content
SEND FEEDBACK

Daily
Averages
Monthly
Summary
United States of America

HOT SULPHUR SPRINGS, COLORADO


Home > North America > United States > Colorado
Elevation: 8112 feet     Latitude: 40 03N     Longitude: 106 08W

WEATHER
 
SELECT A DAY
Number of Records: 267,400;   Date Range: 8/13/03 - 10/20/14
 
SHARE

PRINT THIS DATA

[ ← Previous Day ]
WEATHER ALMANAC - JULY 20, 2014
[ Next Day → ]
[ °C ]   °F
Weather ElementAverageHighLow
Temperature62.1 °F87.8 °F (1:56 pm)42.8 °F (5:17 am)
Dewpoint38.4 °F50 °F (3:57 pm)26.6 °F (1:37 pm)
Humidity47.8 %82 % (11:57 pm)11 % (1:56 pm)
Barometer30.31 in30.37 in (7:57 pm)30.24 in (1:56 pm)
Wind Speed3.4 mph17.3 mph (3:57 pm)
Wind Gust26.5 mph (3:37 pm)
Weather ElementAverage
Visibility9.8 mi
Wind DirectionESE (100.1 °)

Weather ElementTotal
Precipitation0.19 in
Cooling Degree Days0.3 (Base 65)
Growing Degree Days15.3 (Base 50)
Averaged from 70 records on July 20, 2014
WEATHER CONDITIONS BREAKOUT
WIND DIRECTION BREAKOUT
WEATHER BY HOUR - JULY 20, 2014
[ °C ]   °F
Local TimeTemperatureDewpointHumidityBarometerVisibilityWind DirectionWind SpeedGust SpeedPrecipitationEventsConditions
12:37 AM55.4 °F37.4 °F51 %30.26 in10.0 miCalmClear
12:56 AM55.4 °F37.4 °F51 %30.26 in10.0 miCalmClear
1:17 AM53.6 °F37.4 °F54 %30.26 in10.0 miCalmClear
1:37 AM53.6 °F37.4 °F54 %30.27 in10.0 miESE (110°)4.6 mphClear
1:56 AM51.8 °F37.4 °F58 %30.27 in10.0 miCalmClear
2:17 AM51.8 °F35.6 °F54 %30.27 in10.0 miCalmClear
2:37 AM50.0 °F35.6 °F58 %30.28 in10.0 miCalmClear
2:57 AM50.0 °F35.6 °F58 %30.28 in10.0 miCalmClear
3:17 AM50.0 °F35.6 °F58 %30.28 in10.0 miCalmClear
3:37 AM48.2 °F37.4 °F66 %30.29 in10.0 miCalmClear
3:57 AM46.4 °F35.6 °F66 %30.29 in10.0 miCalmClear
4:17 AM44.6 °F33.8 °F66 %30.29 in10.0 miCalmClear
4:37 AM46.4 °F37.4 °F71 %30.30 in10.0 miCalmClear
4:57 AM44.6 °F35.6 °F71 %30.31 in10.0 miCalmClear
5:17 AM42.8 °F33.8 °F70 %30.31 in10.0 miCalmClear
5:37 AM42.8 °F33.8 °F70 %30.32 in10.0 miCalmClear
5:56 AM42.8 °F35.6 °F76 %30.33 in10.0 miCalmClear
6:17 AM42.8 °F35.6 °F76 %30.33 in10.0 miCalmClear
6:37 AM44.6 °F35.6 °F71 %30.34 in10.0 miCalmClear
6:57 AM46.4 °F37.4 °F71 %30.34 in10.0 miCalmClear
7:16 AM50.0 °F35.6 °F58 %30.34 in10.0 miCalmClear
7:37 AM50.0 °F35.6 °F58 %30.35 in10.0 miCalmClear
7:57 AM53.6 °F37.4 °F54 %30.35 in10.0 miCalmClear
8:37 AM57.2 °F37.4 °F48 %30.35 in10.0 miCalmClear
8:57 AM59.0 °F33.8 °F39 %30.34 in10.0 miCalmClear
9:16 AM60.8 °F37.4 °F42 %30.34 in10.0 miCalmClear
9:36 AM62.6 °F35.6 °F37 %30.33 in10.0 miCalmClear
9:57 AM66.2 °F37.4 °F35 %30.33 in10.0 miCalmClear
10:17 AM69.8 °F33.8 °F27 %30.32 in10.0 miCalmClear
10:36 AM69.8 °F35.6 °F28 %30.32 in10.0 miCalmClear
10:57 AM71.6 °F35.6 °F27 %30.31 in10.0 miWest (280°)3.5 mphClear
11:17 AM73.4 °F37.4 °F27 %30.31 in10.0 miSW (230°)3.5 mphClear
11:37 AM75.2 °F35.6 °F24 %30.30 in10.0 miCalmClear
11:57 AM78.8 °F33.8 °F20 %30.29 in10.0 miSSW (210°)3.5 mphClear
12:17 PM80.6 °F32.0 °F17 %30.28 in10.0 miCalmClear
12:37 PM80.6 °F28.4 °F15 %30.28 in10.0 miNNE (30°)3.5 mphClear
12:57 PM84.2 °F28.4 °F13 %30.27 in10.0 miENE (70°)4.6 mphClear
1:17 PM84.2 °F28.4 °F13 %30.26 in10.0 miWest (280°)4.6 mphScattered Clouds
1:37 PM86.0 °F26.6 °F12 %30.25 in10.0 miCalmScattered Clouds
1:56 PM87.8 °F26.6 °F11 %30.24 in10.0 miNW (320°)3.5 mphClear
2:17 PM86.0 °F26.6 °F12 %30.24 in10.0 miCalmScattered Clouds
2:36 PM82.4 °F26.6 °F13 %30.24 in10.0 miNNW (330°)3.5 mphScattered Clouds
2:57 PM78.8 °F32.0 °F18 %30.24 in10.0 miNNW (330°)9.2 mph19.6 mphRainLight Rain
3:17 PM80.6 °F33.8 °F18 %30.24 in10.0 miNNW (330°)9.2 mphMostly Cloudy
3:37 PM71.6 °F42.8 °F35 %30.28 in5.0 miWest (260°)10.4 mph26.5 mph0.05 inRain-ThunderstormHeavy Thunderstorms and Rain
3:57 PM68.0 °F50.0 °F52 %30.32 in7.0 miWSW (240°)17.3 mph23.0 mph0.08 inRainHeavy Rain
4:17 PM69.8 °F48.2 °F46 %30.28 in10.0 miNNE (30°)6.9 mph0.01 inOvercast
4:37 PM71.6 °F50.0 °F46 %30.27 in10.0 miNorth (360°)6.9 mph0.01 inRainLight Rain
4:57 PM73.4 °F44.6 °F36 %30.27 in10.0 miNorth (360°)5.8 mph0.01 inOvercast
5:17 PM71.6 °F50.0 °F46 %30.29 in10.0 miWNW (300°)4.6 mphRain-ThunderstormLight Thunderstorms and Rain
5:37 PM69.8 °F41.0 °F35 %30.30 in10.0 miNW (320°)11.5 mph19.6 mphMostly Cloudy
5:57 PM69.8 °F37.4 °F31 %30.31 in10.0 miNorth (350°)11.5 mph17.3 mphThunderstormMostly Cloudy
6:17 PM69.8 °F39.2 °F33 %30.31 in10.0 miWSW (240°)11.5 mphMostly Cloudy
6:36 PM71.6 °F37.4 °F29 %30.32 in10.0 miNorth (350°)3.5 mphThunderstormThunderstorm
6:57 PM69.8 °F41.0 °F35 %30.33 in10.0 miSW (230°)5.8 mphRainLight Rain
7:17 PM69.8 °F41.0 °F35 %30.35 in10.0 miSouth (180°)5.8 mphThunderstormThunderstorm
7:37 PM66.2 °F44.6 °F46 %30.35 in10.0 miSouth (180°)16.1 mph20.7 mphOvercast
7:57 PM62.6 °F46.4 °F55 %30.37 in10.0 miSSW (210°)15.0 mphRainLight Rain
8:17 PM59.0 °F48.2 °F67 %30.33 in7.0 miSouth (190°)11.5 mph0.01 inRainLight Rain
8:37 PM59.0 °F46.4 °F63 %30.34 in10.0 miENE (60°)4.6 mph0.01 inClear
8:57 PM59.0 °F46.4 °F63 %30.34 in10.0 miSouth (170°)10.4 mph0.01 inClear
9:16 PM59.0 °F46.4 °F63 %30.34 in10.0 miSSW (200°)10.4 mphClear
9:37 PM59.0 °F46.4 °F63 %30.35 in10.0 miSSW (200°)4.6 mphClear
9:57 PM55.4 °F48.2 °F77 %30.36 in10.0 miCalmClear
10:17 PM55.4 °F46.4 °F72 %30.36 in10.0 miNorth (10°)4.6 mphClear
10:37 PM55.4 °F48.2 °F77 %30.36 in10.0 miNE (50°)4.6 mphClear
10:57 PM55.4 °F46.4 °F72 %30.36 in10.0 miCalmClear
11:17 PM53.6 °F46.4 °F77 %30.36 in10.0 miCalmClear
11:37 PM53.6 °F46.4 °F77 %30.35 in10.0 miCalmClear
11:57 PM51.8 °F46.4 °F82 %30.36 in10.0 miCalmClear
Hourly data recorded from K20V, located miles away from Hot Sulphur Springs, Colorado







STORIES FROM OUR PARTNERS